Location: Bush Observatory
(40.2653°N, 94.3194°W)
Time: 09:18:39
(UTC-05:00)

Daily predictions for brighter satellites

Satellite Brightness Start Highest point End
(mag) Time Altitude Azimuth Time Altitude Azimuth Time Altitude Azimuth
Meteor 2-4 Rocket 4.4 20:15:46 10° NNW 20:21:36 67° W 20:27:28 10° S
OAO 2 Rocket 3.8 20:18:24 10° WSW 20:23:09 46° S 20:27:59 10° ESE
Cosmos 1980 Rocket 3.3 20:21:27 10° SSE 20:25:40 22° E 20:29:54 10° NE
USA 186 2.7 20:23:45 10° SE 20:26:16 24° ENE 20:28:38 10° NNE
ALOS 2.5 20:22:04 10° SSE 20:26:35 52° ENE 20:31:08 10° N
Cosmos 2369 3.8 20:23:10 10° SSW 20:28:51 85° WNW 20:34:35 10° NNE
H-2A R/B 3.3 20:26:10 10° SE 20:29:50 41° ENE 20:33:34 10° N
Cosmos 1898 Rocket 4.1 20:26:45 10° N 20:31:44 40° ENE 20:36:38 10° SE
HJ-1C 4.4 20:29:09 10° S 20:32:20 48° W 20:35:33 10° NNW
Cosmos 1821 Rocket 4.4 20:28:01 10° SSW 20:34:04 67° W 20:40:09 10° N
Cosmos 1605 Rocket 4.0 20:31:00 10° S 20:37:17 75° E 20:43:32 10° N
Cosmos 2084 3.5 20:34:30 10° NNW 20:38:31 57° NE 20:42:28 12° SE
DELTA 2 R/B (1) 3.9 20:33:22 10° W 20:38:52 61° SSW 20:43:49 13° ESE
H-2A R/B 4.1 20:38:21 10° ENE 20:39:28 11° ENE 20:40:36 10° NE
FENGYUN 3A 3.6 20:34:29 10° SSE 20:39:47 69° ENE 20:45:07 10° N
Cosmos 1656 3.6 20:35:12 10° SSW 20:40:46 68° ESE 20:46:18 10° NNE
Cosmos 1626 Rocket 3.6 20:37:32 10° N 20:41:54 59° E 20:46:10 10° SSE
Meteor 1-29 4.4 20:39:20 10° N 20:42:38 42° WNW 20:45:56 10° SW
Cosmos 468 Rocket 4.2 20:37:48 10° S 20:42:41 47° ESE 20:47:36 10° NNE
EO 1 Delta rocket 4.0 20:39:55 10° NNE 20:44:42 70° E 20:50:23 10° S
CZ-3C R/B 4.4 19:31:14 10° WSW 20:45:40 38° SSW 20:55:34 10° SE
Cosmos 1455 Rocket 3.8 20:41:36 10° SSW 20:45:51 57° W 20:50:10 10° N
Cosmos 1975 2.8 20:42:20 10° S 20:46:24 69° E 20:50:29 10° NNE
Tiangong 1 1.2 20:44:58 10° WNW 20:48:05 66° NNE 20:50:13 18° E
Cosmos 2100 Rocket 4.5 20:42:23 10° SSE 20:48:06 38° E 20:53:47 10° NNE
Cosmos 220 Rocket 3.9 20:45:12 10° NNW 20:49:26 90° NNE 20:53:38 10° SSE
Lacrosse 5 rocket 2.1 20:47:16 10° WNW 20:50:46 40° SW 20:54:09 10° SSE
Cosmos 1602 Rocket 3.5 20:47:41 10° N 20:52:10 78° E 20:56:33 10° S
CZ-2D R/B 3.3 20:50:10 10° SSE 20:54:02 88° WSW 20:57:57 10° NNW
Cosmos 1500 3.3 20:51:31 10° S 20:55:10 52° E 20:58:51 10° NNE
Cosmos 1814 Rocket 4.1 20:50:18 10° S 20:55:28 53° ESE 21:00:37 10° NNE
Cosmos 2227 Rocket 3.0 20:51:02 10° NNW 20:56:30 51° WSW 21:01:56 10° S
Cosmos 2322 Rocket 3.7 21:00:48 15° E 21:00:48 15° E 21:03:06 10° ENE
Cosmos 2061 Rocket 4.3 20:55:30 10° SSE 21:01:25 44° E 21:07:18 10° NNE
Cosmos 1340 3.8 20:59:49 10° NNE 21:03:01 25° ENE 21:03:56 22° E
CZ-4B DEB 4.4 21:01:46 10° SSW 21:04:48 35° W 21:07:52 10° NNW
Cosmos 2297 Rocket 2.9 21:05:54 10° NNW 21:11:24 54° WSW 21:16:53 10° S
Cosmos 858 Rocket 4.5 21:07:28 10° NNW 21:12:47 82° ENE 21:17:03 16° SSE
Cosmos 1459 Rocket 4.0 21:08:21 10° S 21:14:15 58° E 21:20:13 10° NNE
Cosmos 1515 4.1 21:16:12 10° NNW 21:20:01 63° W 21:23:40 11° S
Iridium 4 Rocket 3.5 21:15:58 10° N 21:20:54 73° W 21:25:22 10° S
Cosmos 2058 Rocket 4.0 21:22:25 28° E 21:22:29 28° E 21:26:21 10° NNE
Cosmos 1606 Rocket 3.8 21:22:36 27° SSE 21:24:36 47° E 21:28:52 10° NNE
Cosmos 1939 Rocket 3.1 21:24:09 34° SE 21:25:41 55° ENE 21:29:47 10° N
Envisat 3.1 21:26:38 29° SE 21:29:06 58° ENE 21:34:06 10° N
Lacrosse 5 1.9 21:25:34 10° NW 21:30:38 75° SW 21:32:59 32° SSE
Cosmos 1937 Rocket 3.5 21:26:32 10° NNW 21:31:50 84° WSW 21:35:08 24° SSE
BREEZE-M DEB (TANK) 4.4 21:30:07 10° NW 21:33:53 54° NNE 21:39:45 24° E
BREEZE-M DEB (TANK) 2.7 21:32:34 10° NW 21:34:48 40° NNE 21:35:26 36° ENE
Cosmos 1743 2.7 21:34:26 17° S 21:37:22 85° W 21:41:19 10° N
SPOT 5 3.3 21:38:12 38° ESE 21:39:12 43° ENE 21:43:43 10° N
Cosmos 990 Rocket 3.9 21:35:41 10° NNW 21:40:58 86° ENE 21:43:14 35° SSE
Cosmos 1697 Rocket 3.7 21:39:47 10° SW 21:45:13 49° WNW 21:50:43 10° NNE
Cosmos 1726 Rocket 3.4 21:46:06 48° SSE 21:47:12 72° E 21:51:37 10° NNE
ERS-1 Rocket 3.2 21:48:35 26° S 21:51:26 67° WSW 21:56:27 10° NNW
CZ-4 DEB 3.9 21:51:47 34° SW 21:52:18 37° W 21:55:16 10° NNW
RESURS DK-1 3.4 21:49:30 10° NW 21:53:26 42° WSW 21:54:48 31° SSW
SL-08 R/B 4.4 21:50:02 24° S 21:53:55 71° E 22:00:04 10° NNE
H-2A R/B 3.7 21:56:29 17° NE 21:56:29 17° NE 21:59:03 10° NNE
Cosmos 1802 Rocket 4.2 21:50:25 10° SSW 21:56:48 77° W 22:03:17 10° N
SL-16 R/B 2.5 21:57:52 45° E 21:57:52 45° E 22:02:45 10° NE
ARGOS 3.8 21:57:44 37° ENE 21:57:57 37° ENE 22:02:52 10° N
Terra 3.9 21:59:15 14° NE 21:59:15 14° NE 22:00:50 10° NNE
Cosmos 836 Rocket 4.4 21:58:49 35° S 22:01:03 74° ESE 22:06:22 10° NNE
Cosmos 1825 Rocket 4.2 21:58:16 10° NNW 22:02:34 53° W 22:04:05 35° SSW
Cosmos 2016 Rocket 4.0 21:58:34 13° S 22:04:10 80° W 22:10:24 10° N
Cosmos 1763 Rocket 3.8 22:00:01 10° SSW 22:05:03 62° WNW 22:10:06 10° NNE
OAO 2 Rocket 4.1 22:02:53 10° W 22:07:11 38° SSW 22:07:11 38° SSW
MetOp-B 4.0 22:07:20 63° SE 22:08:06 73° ENE 22:13:27 10° N
Cosmos 1980 Rocket 3.0 22:03:44 10° SW 22:09:13 51° WNW 22:14:48 10° NNE
Cosmos 1842 3.8 22:09:09 10° N 22:12:18 56° NNW 22:12:18 56° NNW
Cosmos 1953 Rocket 4.1 22:09:53 10° NNW 22:14:15 55° W 22:15:00 48° SW
SPOT 1/Viking Rocket 3.7 22:15:02 56° ENE 22:15:02 56° ENE 22:19:59 10° N
H-2A R/B 2.2 22:15:02 64° W 22:15:02 64° W 22:19:03 10° NNW
Cosmos 2098 Rocket 3.9 22:12:45 25° S 22:17:01 83° W 22:22:40 10° N
Cosmos 2228 3.8 22:20:02 43° NNE 22:20:02 43° NNE 22:22:58 10° N
Cosmos 1375 Rocket 4.4 22:12:16 10° SSW 22:18:49 77° ESE 22:25:26 10° NNE
Cosmos 1666 3.7 22:20:21 44° NNW 22:20:21 44° NNW 22:23:15 10° N
Cosmos 1125 Rocket 3.4 22:14:55 10° NNW 22:20:07 78° ENE 22:20:07 78° ENE
USA 245 4.4 22:22:51 66° SE 22:23:45 77° ENE 22:30:03 10° N
USA 215 4.3 22:21:34 27° ENE 22:24:01 35° NNE 22:29:49 10° NW
Tiangong 1 4.1 22:21:38 10° W 22:22:11 14° W 22:22:11 14° W
SL-19 R/B 4.2 22:20:10 10° NNE 22:24:57 65° NE 22:24:57 65° NE
BREEZE-M DEB (TANK) 3.7 22:14:31 10° WSW 22:26:17 66° NNW 22:27:44 43° NE
YAOGAN 6 4.1 22:28:05 35° NNW 22:28:05 35° NNW 22:30:24 10° NNW
BREEZE-M DEB (TANK) 4.0 22:10:25 10° WNW 22:30:06 66° NNE 22:31:51 49° ENE
Cosmos 2263 Rocket 2.6 22:29:46 10° NNW 22:34:32 49° NE 22:34:32 49° NE
Cosmos 540 Rocket 4.2 22:39:10 45° NNE 22:39:10 45° NNE 22:42:41 10° NNE
ASTEX 1 4.2 22:32:43 10° N 22:37:33 49° W 22:38:30 43° WSW
Cosmos 2322 Rocket 2.4 22:42:28 59° WSW 22:43:19 68° WNW 22:48:56 10° NNE
Tsikada Rocket 4.3 22:39:42 10° NNW 22:46:02 62° W 22:47:16 52° SW
Meteor 2-5 Rocket 4.1 22:45:29 10° N 22:50:21 57° NNE 22:50:21 57° NNE
Meteor 2-17 Rocket 4.4 22:52:22 76° W 22:52:24 76° W 22:58:29 10° N
ATLAS CENTAUR R/B 4.5 23:16:15 50° E 23:16:15 50° E 23:32:47 10° NE
Cosmos 2278 Rocket 4.4 23:23:26 10° N 23:25:52 16° NE 23:25:52 16° NE
H-2A R/B 3.7 23:37:08 29° NW 23:37:08 29° NW 23:39:39 10° NNW
Terra 3.8 23:38:08 25° NNW 23:38:08 25° NNW 23:40:13 10° NNW
SL-16 R/B 4.1 23:39:37 21° W 23:41:40 26° NW 23:46:23 10° N
Cosmos 1844 Rocket 4.3 23:41:20 10° N 23:44:10 28° N 23:44:10 28° N
Cosmos 2360 Rocket 3.8 23:56:06 30° N 23:56:06 30° N 23:59:05 10° NNE
